Regional Weather Roundup
Issued by NWS

Home | Current Version | Previous Version | Text Only | Print | Product List | Glossary On
Versions: 1 2 3 4 5 6 7 8 9 10 11 12 13 14 15 16 17 18 19 20 21 22 23 24 25 26 27 28 29 30 31 32 33 34 35 36 37 38 39 40 41 42 43 44 45 46 47 48 49 50
000
ASUS43 KDMX 070203
RWRIA

WEATHER ROUNDUP FOR IOWA
NATIONAL WEATHER SERVICE DES MOINES IA
800 PM CST SAT FEB 06 2016

NOTE: "FAIR" INDICATES FEW OR NO CLOUDS BELOW 12,000 FEET WITH NO
SIGNIFICANT WEATHER AND/OR OBSTRUCTIONS TO VISIBILITY.

* - THESE STATIONS ARE NOT NWS STATIONS...THUS NOT UNDER NWS
QUALITY CONTROL.  THEY ALSO DO NOT REPORT WEATHER SUCH
AS PRECIPITATION OR FOG.

IAZ001>003-012>014-020>022-031>034-043>046-070300-
   NORTHWEST IOWA

CITY           SKY/WX    TMP DP  RH WIND       PRES   REMARKS
CARROLL *      CLOUDY    37  30  75 SW22      29.94F WCI  27
CHEROKEE *     CLOUDY    34  28  80 SW15      29.91F WCI  24
DENISON *      PTCLDY    36  27  69 SW15G22   29.93F WCI  26
LE MARS *      CLEAR     34  28  80 S14       29.89F WCI  24
ORANGE CITY *  CLEAR     32  28  86 S12       29.87F WCI  23
SHELDON *      CLEAR     32  27  80 SW13      29.86F WCI  22
SIOUX CITY     CLOUDY    34  26  72 S7        29.92F WCI  28
SPENCER        CLOUDY    33  25  72 SW18      29.87F WCI  22
STORM LAKE *   CLEAR     34  28  80 SW15G22   29.92S WCI  24
$$

IAZ055>058-069>071-079>083-090>094-070300-
   SOUTHWEST IOWA

CITY           SKY/WX    TMP DP  RH WIND       PRES   REMARKS
ATLANTIC *     PTCLDY    37  30  75 S16       29.98F WCI  28
AUDUBON *      CLOUDY    37  32  81 S16       29.97F WCI  28
CLARINDA *     CLEAR     37  30  75 S10       30.06F WCI  30
COUNCIL BLFS * CLOUDY    37  30  75 SW16      29.98F WCI  28
CRESTON *      CLOUDY    37  30  75 SW14      30.03F WCI  29
HARLAN  *      CLEAR     37  30  75 S17       30.00F WCI  28
LAMONI         PTCLDY    36  29  75 S12       30.05F WCI  28
RED OAK *      PTCLDY    37  32  81 S10       30.02S WCI  30
SHENANDOAH *   CLEAR     39  32  75 S14       30.03F WCI  31
$$

IAZ047>049-059>061-072>074-084-070300-
   CENTRAL IOWA

CITY           SKY/WX    TMP DP  RH WIND       PRES   REMARKS
AMES           CLOUDY    35  30  82 S12       29.99F WCI  27
ANKENY *       CLEAR     36  34  93 S9        30.00F WCI  29
BOONE *        CLOUDY    36  32  87 S14       29.96F WCI  27
CHARITON *     CLOUDY    36  32  87 S10       30.04F WCI  28
DES MOINES     CLOUDY    36  30  79 S9        30.02F WCI  29
GRINNELL*      CLOUDY    33  30  90 S14       30.03F WCI  23
KNOXVILLE *    MOCLDY    34  30  86 S9        30.03F WCI  26
MARSHALLTOWN   CLOUDY    33  29  85 S14       30.00F WCI  23
NEWTON *       PTCLDY    34  34 100 S13       30.02F WCI  25
PELLA *        PTCLDY    34  30  86 S8        30.06F WCI  27
$$

IAZ004>006-015-016-023>025-035-036-070300-
   NORTH CENTRAL IOWA

CITY           SKY/WX    TMP DP  RH WIND       PRES   REMARKS
ALGONA *       PTCLDY    32  28  86 S20       29.90F WCI  20
CLARION *      PTCLDY    32  28  86 S15       29.94F WCI  22
ESTHERVILLE    CLOUDY    33  26  75 SW18      29.86F WCI  22
FORT DODGE *   PTCLDY    34  27  75 S16       29.94F WCI  23
MASON CITY     CLOUDY    31  28  89 S16G26    29.93F WCI  20
FOREST CITY *  PTCLDY    32  30  93 S18       29.91F WCI  20
WEBSTER CITY * PTCLDY    34  32  93 S16       29.94S WCI  23
IOWA FALLS *     N/A     33  31  91 S20       29.96F WCI  21
$$

IAZ007>011-017>019-026>030-037>042-050>054-066-070300-
   NORTHEAST IOWA

CITY           SKY/WX    TMP DP  RH WIND       PRES   REMARKS
CEDAR RAPIDS   CLEAR     30  30 100 S8        30.05F FOG     WCI  22
CHARLES CITY * CLOUDY    28  28 100 S17       29.96F FOG     WCI  16
CLINTON *      CLEAR     28  27  96 SE3       30.11F
DECORAH *      CLOUDY    28  28 100 S9G15     29.97F WCI  20
DUBUQUE        CLEAR     25  23  92 S8        30.05F FOG     WCI  16
MONTICELLO *   CLEAR     27  25  93 SE5       30.06F WCI  21
OELWEIN *      CLOUDY    28  28 100 S15       30.02F FOG     WCI  17
$$

IAZ064-065-067-068-078-070300-
   EAST CENTRAL IOWA

CITY           SKY/WX    TMP DP  RH WIND       PRES   REMARKS
DAVENPORT      CLEAR     30  27  88 S5        30.10F WCI  25
IOWA CITY      CLEAR     29  28  96 CALM      30.10F FOG
MT. PLEASANT * CLEAR     37  32  81 S8        30.12F WCI  31
MUSCATINE *    CLEAR     30  28  93 S5        30.11F WCI  25
QUAD CITIES    CLEAR     28  25  88 CALM      30.10F
$$

IAZ062-063-075>077-085>089-095>099-070300-
   SOUTHEAST IOWA

CITY           SKY/WX    TMP DP  RH WIND       PRES   REMARKS
BURLINGTON     CLEAR     36  29  75 SW5       30.12F WCI  32
FAIRFIELD *    CLEAR     36  28  75 S6        30.10F WCI  31
FORT MADISON * CLEAR     37  30  75 SW5       30.13F WCI  34
KEOKUK *       CLEAR     37  28  70 SW6       30.13S WCI  33
OSKALOOSA *      N/A     32  30  93 S9        30.07F WCI  24
OTTUMWA        CLEAR     33  30  88 S12       30.06F WCI  24
WASHINGTON *   CLEAR     34  30  86 S8        30.11S WCI  27
$$

ABBREVIATIONS USED IN REMARKS
   TC - TEMPERATURES IN CELSIUS
  WCI - WIND CHILL INDEX
   HX - HEAT INDEX
  VSB - VISIBILITY
$$




USA.gov is the U.S. government's official web portal to all federal, state and local government web resources and services.